| time (UTC) | temp C | wind direction | speed KPH | gust KPH | rain 1hr cm | rain 24hr cm | rain mn cm | humidity % | barometer mb |
| 20260504081520 | 3 | 0.0 | 0.0 | 0.08 | 0.79 | 0.20 | 88 | 978.0 | |
| 20260504050017 | 4 | 0.0 | 0.0 | 0.00 | 0.58 | 0.00 | 89 | 975.9 | |
| 20260504044507 | 5 | 0.0 | 0.0 | 0.00 | 0.58 | 0.00 | 88 | 976.3 | |
| 20260504043003 | 5 | 0.0 | 0.0 | 0.00 | 0.58 | 0.00 | 87 | 976.5 | |
| 20260504041559 | 5 | 0.0 | 0.0 | 0.00 | 0.58 | 0.00 | 86 | 976.9 | |
| 20260504040055 | 5 | 0.0 | 0.0 | 0.00 | 0.58 | 0.00 | 84 | 977.3 | |
| 20260504034550 | 6 | 0.0 | 0.0 | 0.00 | 0.58 | 0.00 | 84 | 977.8 | |
| 20260504033046 | 6 | 0.0 | 0.0 | 0.00 | 0.58 | 0.00 | 84 | 978.1 | |
| 20260504031541 | 6 | 0.0 | 0.0 | 0.00 | 0.58 | 0.00 | 84 | 978.2 | |
| 20260504030036 | 6 | 0.0 | 0.0 | 0.00 | 0.58 | 0.00 | 84 | 978.2 | |
| 20260504024536 | 6 | 0.0 | 0.0 | 0.00 | 0.58 | 0.58 | 85 | 978.2 | |
| 20260504023037 | 6 | 0.0 | 0.0 | 0.00 | 0.58 | 0.58 | 84 | 978.6 | |
| 20260504021534 | 5 | 0.0 | 0.0 | 0.00 | 0.58 | 0.58 | 85 | 979.9 | |
| 20260504020048 | 5 | 0.0 | 0.0 | 0.00 | 0.58 | 0.58 | 85 | 979.8 | |
| 20260504014548 | 6 | 0.0 | 0.0 | 0.00 | 0.58 | 0.58 | 83 | 979.4 | |
| 20260504013043 | 6 | 0.0 | 0.0 | 0.00 | 0.58 | 0.58 | 84 | 978.8 | |
| 20260504011531 | 6 | 0.0 | 0.0 | 0.00 | 0.58 | 0.58 | 85 | 978.7 | |
| 20260504010031 | 6 | 0.0 | 0.0 | 0.03 | 0.58 | 0.58 | 86 | 979.9 | |
| 20260504004534 | 6 | 0.0 | 0.0 | 0.08 | 0.58 | 0.58 | 86 | 979.0 | |
| 20260504003029 | 5 | 0.0 | 0.0 | 0.13 | 0.58 | 0.58 | 87 | 979.5 | |
| 20260504001527 | 5 | 0.0 | 0.0 | 0.13 | 0.58 | 0.58 | 89 | 981.5 | |
| 20260504000026 | 5 | 0.0 | 0.0 | 0.10 | 0.56 | 0.56 | 89 | 982.5 | |
| 20260503234523 | 5 | 0.0 | 0.0 | 0.05 | 0.51 | 0.51 | 89 | 984.8 | |
| 20260503233022 | 5 | 0.0 | 0.0 | 0.05 | 0.46 | 0.46 | 88 | 987.6 | |
| 20260503231519 | 5 | 0.0 | 0.0 | 0.10 | 0.46 | 0.46 | 88 | 989.1 | |
| 20260503230014 | 5 | 0.0 | 0.0 | 0.15 | 0.46 | 0.46 | 88 | 990.9 | |
| 20260503224511 | 3 | 0.0 | 0.0 | 0.15 | 0.46 | 0.46 | 88 | 992.4 | |
| 20260503223009 | 3 | 0.0 | 0.0 | 0.13 | 0.41 | 0.41 | 88 | 993.5 | |
| 20260503221508 | 3 | 0.0 | 0.0 | 0.10 | 0.36 | 0.36 | 89 | 994.1 | |
| 20260503220004 | 3 | 0.0 | 0.0 | 0.08 | 0.30 | 0.30 | 89 | 995.3 | |
| 20260503214503 | 4 | 0.0 | 0.0 | 0.08 | 0.30 | 0.30 | 89 | 995.0 | |
| 20260503213007 | 5 | 0.0 | 0.0 | 0.08 | 0.28 | 0.28 | 89 | 995.5 | |
| 20260503211600 | 5 | 0.0 | 0.0 | 0.08 | 0.25 | 0.25 | 88 | 995.8 | |
| 20260503210059 | 5 | 0.0 | 0.0 | 0.08 | 0.23 | 0.23 | 88 | 996.1 | |
| 20260503204558 | 5 | 0.0 | 0.0 | 0.13 | 0.23 | 0.23 | 88 | 996.7 | |
| 20260503203111 | 5 | 0.0 | 0.0 | 0.13 | 0.20 | 0.20 | 88 | 997.9 | |
| 20260503201553 | 5 | 0.0 | 0.0 | 0.18 | 0.18 | 0.18 | 87 | 998.5 | |
| 20260503200050 | 5 | 0.0 | 0.0 | 0.13 | 0.13 | 0.13 | 84 | 999.3 | |
| 20260503194547 | 6 | 0.0 | 0.0 | 0.10 | 0.10 | 0.10 | 83 | 999.7 | |
| 20260503193043 | 6 | 0.0 | 0.0 | 0.08 | 0.08 | 0.08 | 78 | 1001.1 | |
| 20260503191547 | 7 | 0.0 | 0.0 | 0.00 | 0.00 | 0.00 | 71 | 1002.3 | |
| 20260503190042 | 8 | 0.0 | 0.0 | 0.00 | 0.00 | 0.00 | 60 | 1003.2 | |
| 20260503184536 | 8 | 0.0 | 0.0 | 0.00 | 0.00 | 0.00 | 55 | 1003.4 | |
| 20260503183033 | 10 | 0.0 | 0.0 | 0.00 | 0.00 | 0.00 | 48 | 1004.1 | |
| 20260503181531 | 10 | 0.0 | 0.0 | 0.00 | 0.00 | 0.00 | 40 | 1004.6 | |
| 20260503180034 | 11 | 0.0 | 0.0 | 0.00 | 0.00 | 0.00 | 36 | 1005.0 | |
| 20260503174528 | 11 | 99 | 0.0 | 0.0 | 0.00 | 0.00 | 0.00 | 37 | 1004.8 |
| 20260503173026 | 11 | 0.0 | 0.0 | 0.00 | 0.00 | 0.00 | 36 | 1005.6 | |
| 20260503171524 | 11 | 0.0 | 0.0 | 0.00 | 0.00 | 0.00 | 35 | 1006.0 |